ELECTRON KICK STAGE R/B, 63207

Orbit data source: Space-Track

ELECTRON KICK STAGE R/B, 63207 is space debris in LEO originally from a launch on Sat, 15 Mar 2025 UTC launched from the Rocket Lab Launch Complex (RLLC). Debris objects in space refer to the collection of defunct objects orbiting the Earth. Examples of debris include non-operational satellites, rocket bodies, and fragments generated from explosions, collisions, or faulty payload assembly.

Loading next visibility...
Identifier
63207, 2025-050C
Orbit
LEO
Country
Flag of USUS
Related business
Manufacturer
Rocket Lab
Mission
Spacecraft
Bus & Motor
KICK STAGE, CURIE
Mass
~42 kg wet, ~42 kg dry
Launch date (UTC)
2025-03-15 (6 months ago)
Launch vehicle
Unknown
Launch site
Rocket Lab Launch Complex (RLLC)
Object type
Payload
Rocket body
Debris
Shape & HBR
Trunc Cone, 0.7 m
Radar Cross Section
0.760 m², Large (>1 m²)

Expand to show TLE details & history
Last TLE update: 17 hours ago

TLE from 17 hours ago
0 ELECTRON KICK STAGE R/B
1 63207U 25050C   25258.48711791  .00005272  00000-0  43390-3 0  9998
2 63207  42.0175 174.9435 0003672  50.3582 309.7567 14.99758953 27683
Epoch: 2025-09-15T11:41Z
TLE epoch observation values (Epoch: 2025-09-15T11:41:26.987Z)
Latitude
-0.00003°
Longitude
4.88995°
Altitude
565.68 km
Speed
7.581 km/s
True Right ascension
11h 39m 46s
True Declination
0° 00' 00"
Sunlit
Object was in daylight at epoch
Visualization orbit readout
Latitude
Unknown
Longitude
Unknown
Altitude
Unknown
Speed
Unknown
Apparent Right ascension
Unknown
Apparent Declination
Unknown
Sunlit
N/A
Visualization observer readout
Local Sidereal Time
21:26:15
Azimuth
Unknown
Elevation
Unknown
Doppler factor
Unknown
Orbital elements
Apogee altitude
572.276 km
Perigee altitude
567.173 km
Semi-major axis
6,947.862 km
Eccentricity
0.00037
Inclination
42.0175°
RAAN
174.9435°
Arg. of periapsis
50.3582°
True anomaly
309.72434°
Mean anomaly
309.7567°
Eccentric anomaly
309.74052°
Mean motion
3.74771 °/min
Orbital period
96.06 mins
BSTAR
0.0004339
Loading maneuver chart data...
Computing Atmospheric mass density...
Loading historical data...
Loading historical data...
Loading historical data...
Loading historical data...
Loading historical data...
Loading historical data...
Loading historical data...
Other satellites on launch #50 in the year 2025 (2025-03-15 UTC)

Documentation

Showing up to 5 results
|